UAL2390 KTUS-KIAH

Flight info

Callsign UAL2390
Flight time N/A
Altitude 41000
Route DCT NOCHI DCT ELP DCT FST J138 SAT HTOWN3
Aircraft B737/M-SDE2E3FGHIRWXY/LB1

Departure

Time N/A
Airport Tucson International Airport (KTUS)

Arrival

Time 2026-05-05 14:54
Airport George Bush Intercontinental Airport (KIAH)
Time Latitude Longitude Altitude Speed Heading
2026-05-05 14:43 29.81310 -95.93890 7648 ft 290 kts 31°
2026-05-05 14:43 29.82980 -95.92590 7430 ft 288 kts 32°
2026-05-05 14:43 29.84615 -95.91313 7212 ft 281 kts 31°
2026-05-05 14:44 29.86214 -95.90065 7001 ft 275 kts 31°
2026-05-05 14:44 29.87918 -95.89206 6789 ft 263 kts
2026-05-05 14:44 29.89675 -95.88782 6638 ft 254 kts
2026-05-05 14:44 29.91389 -95.88373 6472 ft 251 kts
2026-05-05 14:45 29.93090 -95.87955 6298 ft 250 kts
2026-05-05 14:45 29.94789 -95.87529 6138 ft 250 kts
2026-05-05 14:45 29.96492 -95.87098 6038 ft 251 kts
2026-05-05 14:45 29.98171 -95.86663 5866 ft 251 kts 13°
2026-05-05 14:46 29.99693 -95.85667 5672 ft 257 kts 46°
2026-05-05 14:46 30.00524 -95.83880 5507 ft 254 kts 80°
2026-05-05 14:46 30.00677 -95.81880 5364 ft 249 kts 93°
2026-05-05 14:46 30.00670 -95.79877 5191 ft 250 kts 95°
2026-05-05 14:47 30.00653 -95.77871 5028 ft 250 kts 95°
2026-05-05 14:47 30.00651 -95.75874 4863 ft 248 kts 94°
2026-05-05 14:47 30.00677 -95.73890 4702 ft 246 kts 94°
2026-05-05 14:47 30.00699 -95.71916 4533 ft 246 kts 94°
2026-05-05 14:48 30.00710 -95.69941 4364 ft 246 kts 95°
2026-05-05 14:48 30.00716 -95.67966 4168 ft 245 kts 95°
2026-05-05 14:48 30.00720 -95.66013 4008 ft 241 kts 95°
2026-05-05 14:48 30.00744 -95.64134 3839 ft 225 kts 95°
2026-05-05 14:49 30.00757 -95.62390 3720 ft 212 kts 97°
2026-05-05 14:49 30.00756 -95.60731 3561 ft 202 kts 96°
2026-05-05 14:49 30.00753 -95.59152 3421 ft 196 kts 97°
2026-05-05 14:49 30.00747 -95.57575 3326 ft 197 kts 97°
2026-05-05 14:50 30.00743 -95.56001 3204 ft 194 kts 98°
2026-05-05 14:50 30.00743 -95.54496 3131 ft 180 kts 99°
2026-05-05 14:50 30.00740 -95.53071 2924 ft 175 kts 99°
2026-05-05 14:50 30.00737 -95.51695 2697 ft 169 kts 99°
2026-05-05 14:51 30.00734 -95.50347 2484 ft 167 kts 99°
2026-05-05 14:51 30.00733 -95.49064 2282 ft 156 kts 99°
2026-05-05 14:51 30.00731 -95.47840 2078 ft 150 kts 99°
2026-05-05 14:51 30.00730 -95.46667 1919 ft 140 kts 99°
2026-05-05 14:52 30.00727 -95.45562 1712 ft 139 kts 101°
2026-05-05 14:52 30.00725 -95.44443 1556 ft 140 kts 99°
2026-05-05 14:52 30.00723 -95.43320 1379 ft 141 kts 98°
2026-05-05 14:52 30.00723 -95.42181 1191 ft 144 kts 96°
2026-05-05 14:53 30.00734 -95.41020 1066 ft 146 kts 99°
2026-05-05 14:53 30.00714 -95.39825 904 ft 152 kts 96°
2026-05-05 14:53 30.00725 -95.38604 701 ft 153 kts 96°
2026-05-05 14:53 30.00717 -95.37379 479 ft 150 kts 95°
2026-05-05 14:54 30.00717 -95.36200 253 ft 143 kts 94°
2026-05-05 14:54 30.00713 -95.35112 107 ft 127 kts 90°
2026-05-05 14:54 30.00712 -95.34217 106 ft 94 kts 86°
2026-05-05 14:54 30.00717 -95.33700 106 ft 18 kts 91°
2026-05-05 14:55 30.00688 -95.33548 106 ft 22 kts 110°
2026-05-05 14:55 30.00616 -95.33389 105 ft 23 kts 122°
2026-05-05 14:55 30.00544 -95.33231 106 ft 22 kts 119°
2026-05-05 14:55 30.00472 -95.33080 105 ft 21 kts 115°
2026-05-05 14:56 30.00385 -95.32946 105 ft 21 kts 132°
2026-05-05 14:56 30.00295 -95.32820 106 ft 20 kts 130°
2026-05-05 14:56 30.00206 -95.32700 106 ft 19 kts 131°
2026-05-05 14:56 30.00120 -95.32584 106 ft 19 kts 130°
2026-05-05 14:57 30.00004 -95.32540 106 ft 18 kts 179°
2026-05-05 14:57 29.99880 -95.32543 106 ft 18 kts 182°
2026-05-05 14:57 29.99800 -95.32540 106 ft 17 kts 176°
2026-05-05 14:57 29.99678 -95.32542 106 ft 19 kts 181°
2026-05-05 14:58 29.99483 -95.32540 106 ft 23 kts 182°
2026-05-05 14:58 29.99369 -95.32540 104 ft 25 kts 180°
2026-05-05 14:58 29.99225 -95.32539 106 ft 16 kts 181°
2026-05-05 14:58 29.99178 -95.32629 106 ft 15 kts 271°
2026-05-05 14:59 29.99179 -95.32750 106 ft 15 kts 270°
2026-05-05 14:59 29.99180 -95.32867 106 ft 14 kts 269°
2026-05-05 14:59 29.99179 -95.32977 106 ft 13 kts 266°
2026-05-05 14:59 29.99109 -95.33027 106 ft 13 kts 181°
2026-05-05 15:00 29.99021 -95.33026 106 ft 13 kts 180°
2026-05-05 15:00 29.98935 -95.33027 106 ft 12 kts 181°
2026-05-05 15:00 29.98853 -95.33026 102 ft 12 kts 180°
2026-05-05 15:00 29.98773 -95.33027 106 ft 11 kts 180°
2026-05-05 15:01 29.98695 -95.33027 106 ft 11 kts 178°
2026-05-05 15:01 29.98620 -95.33026 106 ft 11 kts 181°
2026-05-05 15:01 29.98539 -95.33027 106 ft 12 kts 181°
2026-05-05 15:01 29.98450 -95.33026 106 ft 14 kts 180°
2026-05-05 15:02 29.98340 -95.33027 106 ft 17 kts 180°
2026-05-05 15:02 29.98301 -95.33135 106 ft 16 kts 270°
2026-05-05 15:02 29.98306 -95.33263 106 ft 16 kts 272°
2026-05-05 15:02 29.98344 -95.33356 105 ft 14 kts
2026-05-05 15:03 29.98404 -95.33338 106 ft 1 kts 72°
2026-05-05 15:03 29.98403 -95.33328 106 ft 1 kts 97°
2026-05-05 15:03 29.98401 -95.33314 100 ft 3 kts 95°
2026-05-05 15:03 29.98401 -95.33294 115 ft 2 kts 91°
2026-05-05 15:04 29.98400 -95.33290 113 ft 0 kts 91°